Flag for Spain Weather past 2 weeks in Zaragoza, Spain

Now
68 °F

Partly sunny.


Feels Like: 68 °F
Forecast: 59 / 81 °F
Wind: 15 mph from Northwest

Location: Zaragoza / Aeropuerto

Current Time: Aug 22, 2014 at 2:01:31 PM

Latest Report: Aug 22, 2014 at 1:30 PM


Visibility: N/A

Pressure: 30.01 "Hg

Humidity: 69%

Dew point: 57 °F

Location of ZaragozaLocation

Historic Weather in Zaragoza — Graph

°F

Zaragoza temperature yesterday

Maximum temperature yesterday: 82 °F (at 6:30 PM)
Minimum temperature yesterday: 59 °F (at 5:00 AM)
Average temperature yesterday: 69 °F

Past Weeks' High & Low Weather Summary

 TemperatureHumidityPressure
High97 °F (Aug 8, 5:00 PM)94% (Aug 18, 8:30 PM)30.21 "Hg (Aug 18, 8:30 PM)
Low54 °F (Aug 17, 7:00 AM)13% (Aug 10, 4:00 PM)29.71 "Hg (Aug 8, 7:00 PM)
Average73 °F55%29.99 "Hg
* Reported Aug 7 1:00 PM — Aug 22 1:00 PM, Zaragoza, Weather by CustomWeather, © 2014

Note: Actual official high and low records may vary slightly from our data, if they occured in-between our weather recording intervals... More about our weather records

Advertising

Zaragoza weather history for previous 24 hours

 ConditionsComfort  
Time TempWeatherWind HumidityBarometerVisibility
1:00 PM
Aug 22
70 °FPartly sunny.9 mph69%30.01 "HgN/A
12:30 PM68 °FPartly sunny.7 mph69%30.01 "HgN/A
12:00 PM68 °FPartly sunny.8 mph69%30.01 "HgN/A
11:30 AM68 °FPartly sunny.6 mph69%30.01 "HgN/A
11:00 AM66 °FOvercast.8 mph73%30.01 "HgN/A
10:30 AM66 °FOvercast.8 mph68%30.01 "HgN/A
10:00 AM66 °FOvercast.6 mph68%30.01 "HgN/A
9:30 AM66 °FOvercast.6 mph64%30.01 "HgN/A
9:00 AM64 °FPartly sunny.7 mph68%30.01 "HgN/A
8:30 AM64 °FPartly sunny.9 mph68%29.98 "HgN/A
8:00 AM64 °FPassing clouds.9 mph68%29.98 "HgN/A
7:30 AM64 °FPassing clouds.6 mph68%29.98 "HgN/A
7:00 AM64 °FPassing clouds.9 mph68%29.98 "HgN/A
6:30 AM64 °FPassing clouds.8 mph68%29.98 "HgN/A
6:00 AM64 °FPassing clouds.6 mph73%29.98 "HgN/A
5:30 AM64 °FPassing clouds.9 mph73%29.98 "HgN/A
5:00 AM64 °FPassing clouds.5 mph73%29.98 "HgN/A
4:30 AM64 °FPassing clouds.9 mph73%29.98 "HgN/A
4:00 AM64 °FPassing clouds.8 mph73%29.98 "HgN/A
3:30 AM64 °FPassing clouds.9 mph73%29.98 "HgN/A
3:00 AM66 °FPassing clouds.7 mph68%29.98 "HgN/A
2:30 AM66 °FPassing clouds.7 mph73%29.98 "HgN/A
2:00 AM66 °FPassing clouds.6 mph73%30.01 "HgN/A
1:30 AM68 °FPassing clouds.3 mph73%30.01 "HgN/A
1:00 AM70 °FPassing clouds.5 mph73%30.01 "HgN/A
12:30 AM72 °FPassing clouds.3 mph69%29.98 "HgN/A
12:00 AM72 °FPassing clouds.3 mph69%29.98 "HgN/A
11:30 PM
Aug 21
72 °FPassing clouds.1 mph69%29.98 "HgN/A
11:00 PM72 °FPassing clouds.2 mph69%29.98 "HgN/A
10:30 PM73 °FPassing clouds.2 mph61%29.98 "HgN/A
10:00 PM73 °FPassing clouds.2 mph61%29.95 "HgN/A
9:30 PM75 °FPassing clouds.1 mph54%29.95 "HgN/A
9:00 PM77 °FPassing clouds.2 mph54%29.95 "HgN/A
8:30 PM79 °FSunny.7 mph48%29.92 "Hg10 mi
8:00 PM81 °FPassing clouds.9 mph42%29.92 "HgN/A
7:30 PM81 °FSunny.8 mph42%29.92 "Hg10 mi
7:00 PM81 °FSunny.8 mph42%29.92 "Hg10 mi
6:30 PM82 °FPassing clouds.7 mph40%29.92 "HgN/A
6:00 PM81 °FPassing clouds.3 mph37%29.95 "HgN/A
5:30 PM81 °FPassing clouds.3 mph34%29.95 "HgN/A
5:00 PM81 °FPassing clouds.6 mph34%29.95 "HgN/A
4:30 PM79 °FSunny.3 mph37%29.98 "Hg10 mi
4:00 PM77 °FPassing clouds.6 mph42%29.98 "HgN/A
3:30 PM79 °FPassing clouds.8 mph37%30.01 "HgN/A
3:00 PM77 °FPassing clouds.5 mph39%30.01 "HgN/A
2:30 PM73 °FPassing clouds.3 mph44%30.04 "HgN/A
2:00 PM73 °FSunny.3 mph41%30.04 "Hg10 mi
Weather by CustomWeather, © 2014

See weather overviewHow to use our weather pages